| time (UTC) | temp C | wind direction | speed KPH | gust KPH | rain 1hr cm | rain 24hr cm | rain mn cm | humidity % | barometer mb |
| 20260509212818 | 32 | 139 | 1.6 | 3.2 | 0.00 | 0.00 | 0.03 | 38 | 1008.4 |
| 20260509211813 | 31 | 246 | 0.0 | 3.2 | 0.00 | 0.00 | 0.03 | 37 | 1008.4 |
| 20260509210842 | 32 | 125 | 0.0 | 3.2 | 0.00 | 0.00 | 0.03 | 36 | 1008.8 |
| 20260509205825 | 31 | 120 | 0.0 | 3.2 | 0.00 | 0.00 | 0.03 | 35 | 1008.8 |
| 20260509204820 | 31 | 43 | 1.6 | 4.8 | 0.00 | 0.00 | 0.03 | 33 | 1009.1 |
| 20260509203848 | 31 | 110 | 1.6 | 3.2 | 0.00 | 0.00 | 0.03 | 39 | 1009.4 |
| 20260509201813 | 32 | 59 | 1.6 | 4.8 | 0.00 | 0.00 | 0.03 | 40 | 1009.4 |
| 20260509200805 | 31 | 34 | 1.6 | 4.8 | 0.00 | 0.00 | 0.03 | 39 | 1009.4 |
| 20260509194813 | 31 | 81 | 1.6 | 4.8 | 0.00 | 0.00 | 0.03 | 47 | 1009.8 |
| 20260509193819 | 31 | 85 | 1.6 | 6.4 | 0.00 | 0.00 | 0.03 | 44 | 1009.8 |
| 20260509192848 | 31 | 131 | 1.6 | 6.4 | 0.00 | 0.00 | 0.03 | 49 | 1009.8 |
| 20260509191841 | 30 | 214 | 1.6 | 4.8 | 0.00 | 0.00 | 0.03 | 51 | 1009.8 |
| 20260509185826 | 30 | 213 | 3.2 | 6.4 | 0.00 | 0.00 | 0.03 | 50 | 1010.1 |
| 20260509184831 | 30 | 278 | 3.2 | 6.4 | 0.00 | 0.00 | 0.03 | 51 | 1010.1 |
| 20260509183847 | 30 | 237 | 1.6 | 4.8 | 0.00 | 0.00 | 0.03 | 51 | 1010.1 |
| 20260509182824 | 30 | 266 | 1.6 | 4.8 | 0.00 | 0.00 | 0.03 | 51 | 1010.4 |
| 20260509181843 | 30 | 196 | 1.6 | 6.4 | 0.00 | 0.00 | 0.03 | 51 | 1010.4 |
| 20260509180835 | 29 | 286 | 1.6 | 4.8 | 0.00 | 0.00 | 0.03 | 53 | 1010.8 |
| 20260509175829 | 29 | 261 | 1.6 | 3.2 | 0.00 | 0.00 | 0.03 | 54 | 1010.8 |
| 20260509174813 | 29 | 156 | 0.0 | 4.8 | 0.00 | 0.00 | 0.03 | 56 | 1010.8 |
| 20260509172819 | 28 | 248 | 1.6 | 4.8 | 0.00 | 0.00 | 0.03 | 57 | 1010.8 |
| 20260509171820 | 28 | 228 | 1.6 | 4.8 | 0.00 | 0.00 | 0.03 | 57 | 1011.1 |
| 20260509170845 | 28 | 188 | 1.6 | 4.8 | 0.00 | 0.00 | 0.03 | 57 | 1011.1 |
| 20260509165813 | 27 | 265 | 3.2 | 8.0 | 0.00 | 0.00 | 0.03 | 60 | 1011.1 |
| 20260509164810 | 27 | 236 | 3.2 | 6.4 | 0.00 | 0.00 | 0.03 | 61 | 1011.1 |
| 20260509163807 | 27 | 241 | 3.2 | 8.0 | 0.00 | 0.00 | 0.03 | 60 | 1011.1 |
| 20260509162816 | 27 | 328 | 4.8 | 9.7 | 0.00 | 0.00 | 0.03 | 59 | 1011.5 |
| 20260509160811 | 27 | 237 | 1.6 | 4.8 | 0.00 | 0.00 | 0.03 | 62 | 1011.5 |
| 20260509155832 | 26 | 266 | 3.2 | 6.4 | 0.00 | 0.00 | 0.03 | 64 | 1011.5 |
| 20260509154848 | 26 | 267 | 3.2 | 8.0 | 0.00 | 0.00 | 0.03 | 65 | 1011.5 |
| 20260509153834 | 26 | 299 | 3.2 | 6.4 | 0.00 | 0.00 | 0.03 | 64 | 1011.5 |
| 20260509152808 | 26 | 210 | 1.6 | 3.2 | 0.00 | 0.00 | 0.03 | 66 | 1011.1 |
| 20260509151816 | 26 | 115 | 3.2 | 6.4 | 0.00 | 0.00 | 0.03 | 65 | 1011.1 |
| 20260509150826 | 25 | 240 | 3.2 | 6.4 | 0.00 | 0.00 | 0.03 | 71 | 1011.1 |
| 20260509143829 | 24 | 217 | 3.2 | 6.4 | 0.00 | 0.00 | 0.03 | 71 | 1011.1 |
| 20260509142837 | 24 | 269 | 4.8 | 8.0 | 0.00 | 0.00 | 0.03 | 71 | 1011.1 |
| 20260509141805 | 23 | 273 | 4.8 | 8.0 | 0.00 | 0.00 | 0.03 | 75 | 1011.5 |
| 20260509140844 | 23 | 296 | 6.4 | 11.3 | 0.00 | 0.00 | 0.03 | 80 | 1011.5 |
| 20260509135805 | 22 | 326 | 4.8 | 9.7 | 0.00 | 0.00 | 0.03 | 82 | 1011.5 |
| 20260509134838 | 22 | 327 | 4.8 | 8.0 | 0.00 | 0.00 | 0.03 | 82 | 1011.5 |
| 20260509133819 | 22 | 318 | 3.2 | 6.4 | 0.00 | 0.00 | 0.03 | 82 | 1011.5 |
| 20260509132842 | 22 | 327 | 3.2 | 6.4 | 0.00 | 0.00 | 0.03 | 81 | 1011.1 |
| 20260509131819 | 21 | 341 | 3.2 | 8.0 | 0.00 | 0.00 | 0.03 | 82 | 1011.1 |
| 20260509130847 | 21 | 331 | 3.2 | 6.4 | 0.00 | 0.00 | 0.03 | 82 | 1011.5 |
| 20260509125819 | 20 | 296 | 3.2 | 6.4 | 0.00 | 0.00 | 0.03 | 83 | 1011.1 |
| 20260509124812 | 20 | 292 | 1.6 | 4.8 | 0.00 | 0.00 | 0.03 | 83 | 1011.5 |
| 20260509123833 | 20 | 227 | 1.6 | 4.8 | 0.00 | 0.00 | 0.03 | 83 | 1011.1 |
| 20260509122847 | 21 | 297 | 0.0 | 1.6 | 0.00 | 0.00 | 0.03 | 84 | 1011.1 |
| 20260509120820 | 20 | 174 | 1.6 | 4.8 | 0.00 | 0.00 | 0.03 | 86 | 1011.1 |
| 20260509115839 | 20 | 147 | 0.0 | 3.2 | 0.00 | 0.00 | 0.03 | 86 | 1010.8 |
| 20260509112822 | 20 | 148 | 0.0 | 1.6 | 0.00 | 0.00 | 0.03 | 83 | 1010.4 |
| 20260509111815 | 20 | 132 | 0.0 | 1.6 | 0.00 | 0.00 | 0.03 | 83 | 1010.1 |
| 20260509110812 | 20 | 38 | 0.0 | 1.6 | 0.00 | 0.00 | 0.03 | 82 | 1010.1 |
| 20260509105840 | 20 | 307 | 1.6 | 4.8 | 0.00 | 0.00 | 0.03 | 81 | 1009.8 |
| 20260509104825 | 20 | 335 | 3.2 | 6.4 | 0.00 | 0.00 | 0.03 | 80 | 1010.1 |
| 20260509103806 | 20 | 339 | 3.2 | 6.4 | 0.00 | 0.00 | 0.03 | 79 | 1010.1 |
| 20260509102827 | 20 | 310 | 3.2 | 8.0 | 0.00 | 0.00 | 0.03 | 77 | 1010.1 |
| 20260509101836 | 20 | 282 | 1.6 | 3.2 | 0.00 | 0.00 | 0.03 | 82 | 1009.8 |
| 20260509100820 | 21 | 187 | 1.6 | 4.8 | 0.00 | 0.00 | 0.03 | 85 | 1010.1 |
| 20260509094822 | 21 | 326 | 4.8 | 9.7 | 0.00 | 0.00 | 0.03 | 85 | 1009.8 |
| 20260509092821 | 21 | 164 | 3.2 | 8.0 | 0.00 | 0.00 | 0.03 | 91 | 1007.7 |
| 20260509085822 | 21 | 150 | 3.2 | 8.0 | 0.00 | 0.00 | 0.03 | 91 | 1007.4 |
| 20260509084807 | 21 | 153 | 4.8 | 11.3 | 0.00 | 0.00 | 0.03 | 91 | 1007.4 |
| 20260509081824 | 21 | 162 | 6.4 | 14.5 | 0.00 | 0.00 | 0.03 | 91 | 1008.4 |
| 20260509080847 | 21 | 155 | 4.8 | 12.9 | 0.00 | 0.00 | 0.03 | 92 | 1008.8 |
| 20260509075824 | 21 | 176 | 1.6 | 6.4 | 0.00 | 0.00 | 0.03 | 92 | 1009.1 |
| 20260509074835 | 21 | 126 | 1.6 | 4.8 | 0.00 | 0.00 | 0.03 | 92 | 1009.1 |
| 20260509073806 | 21 | 125 | 1.6 | 3.2 | 0.00 | 0.00 | 0.03 | 92 | 1009.4 |
| 20260509072828 | 21 | 129 | 1.6 | 3.2 | 0.00 | 0.00 | 0.03 | 91 | 1010.4 |
| 20260509070815 | 21 | 108 | 0.0 | 3.2 | 0.00 | 0.00 | 0.03 | 91 | 1011.8 |
| 20260509065836 | 21 | 305 | 3.2 | 9.7 | 0.00 | 0.00 | 0.03 | 93 | 1012.5 |
| 20260509063808 | 21 | 304 | 0.0 | 1.6 | 0.00 | 0.00 | 0.03 | 93 | 1012.8 |
| 20260509062826 | 21 | 293 | 0.0 | 1.6 | 0.00 | 0.00 | 0.03 | 94 | 1012.1 |
| 20260509061825 | 21 | 319 | 1.6 | 3.2 | 0.00 | 0.00 | 0.03 | 94 | 1012.1 |
| 20260509060823 | 20 | 314 | 1.6 | 3.2 | 0.00 | 0.00 | 0.03 | 94 | 1012.1 |
| 20260509055804 | 20 | 265 | 0.0 | 1.6 | 0.00 | 0.00 | 0.03 | 94 | 1011.8 |
| 20260509054818 | 20 | 197 | 0.0 | 1.6 | 0.00 | 0.00 | 0.03 | 94 | 1011.8 |
| 20260509053835 | 20 | 319 | 1.6 | 3.2 | 0.00 | 0.00 | 0.03 | 94 | 1011.5 |
| 20260509052843 | 20 | 182 | 1.6 | 3.2 | 0.00 | 0.00 | 0.03 | 94 | 1011.8 |
| 20260509051828 | 21 | 45 | 0.0 | 1.6 | 0.00 | 0.00 | 0.03 | 92 | 1011.5 |
| 20260509050823 | 21 | 125 | 0.0 | 0.0 | 0.00 | 0.00 | 0.03 | 92 | 1010.8 |
| 20260509045848 | 21 | 134 | 0.0 | 3.2 | 0.00 | 0.00 | 3.45 | 92 | 1010.8 |
| 20260509044823 | 21 | 135 | 0.0 | 1.6 | 0.00 | 0.00 | 3.43 | 92 | 1010.8 |
| 20260509043835 | 21 | 74 | 0.0 | 1.6 | 0.00 | 0.00 | 3.40 | 92 | 1010.8 |
| 20260509042847 | 21 | 113 | 0.0 | 1.6 | 0.00 | 0.00 | 3.38 | 92 | 1011.1 |
| 20260509041834 | 21 | 112 | 0.0 | 1.6 | 0.00 | 0.00 | 3.35 | 92 | 1010.8 |
| 20260509040815 | 21 | 46 | 0.0 | 1.6 | 0.00 | 0.00 | 3.33 | 91 | 1011.1 |
| 20260509035832 | 21 | 68 | 1.6 | 1.6 | 0.00 | 0.00 | 3.30 | 90 | 1010.8 |
| 20260509034824 | 22 | 123 | 1.6 | 3.2 | 0.00 | 0.00 | 3.28 | 89 | 1010.4 |
| 20260509033838 | 22 | 116 | 0.0 | 3.2 | 0.00 | 0.00 | 3.25 | 89 | 1010.4 |
| 20260509031828 | 22 | 136 | 1.6 | 3.2 | 0.00 | 0.00 | 3.20 | 88 | 1009.8 |
| 20260509030837 | 22 | 153 | 1.6 | 4.8 | 0.00 | 0.00 | 3.17 | 87 | 1009.8 |
| 20260509025844 | 22 | 116 | 0.0 | 3.2 | 0.00 | 0.00 | 3.15 | 87 | 1009.8 |
| 20260509024844 | 22 | 148 | 3.2 | 6.4 | 0.00 | 0.00 | 3.12 | 87 | 1008.8 |
| 20260509022807 | 22 | 153 | 3.2 | 6.4 | 0.00 | 0.00 | 3.07 | 86 | 1009.1 |
| 20260509021842 | 22 | 148 | 3.2 | 4.8 | 0.00 | 0.00 | 3.05 | 86 | 1009.1 |
| 20260509020811 | 22 | 111 | 0.0 | 3.2 | 0.00 | 0.00 | 3.02 | 86 | 1009.1 |
| 20260509015843 | 22 | 118 | 1.6 | 3.2 | 0.00 | 0.00 | 3.00 | 86 | 1009.1 |
| 20260509014842 | 22 | 118 | 0.0 | 1.6 | 0.00 | 0.00 | 2.97 | 86 | 1009.4 |
| 20260509013805 | 22 | 46 | 0.0 | 1.6 | 0.00 | 0.00 | 2.95 | 86 | 1009.1 |
| 20260509012847 | 22 | 65 | 0.0 | 1.6 | 0.00 | 0.00 | 2.92 | 85 | 1009.4 |
| 20260509010810 | 23 | 138 | 1.6 | 3.2 | 0.00 | 0.00 | 2.87 | 83 | 1008.8 |
| 20260509004826 | 23 | 144 | 1.6 | 3.2 | 0.00 | 0.00 | 2.82 | 83 | 1008.8 |
| 20260509003813 | 23 | 146 | 1.6 | 4.8 | 0.00 | 0.00 | 2.79 | 82 | 1008.4 |
| 20260509002830 | 23 | 139 | 3.2 | 4.8 | 0.00 | 0.00 | 2.77 | 82 | 1008.4 |
| 20260509001833 | 23 | 137 | 1.6 | 4.8 | 0.00 | 0.00 | 2.74 | 82 | 1008.8 |
| 20260509000807 | 23 | 137 | 1.6 | 4.8 | 0.00 | 0.00 | 2.72 | 82 | 1008.8 |
| 20260508233832 | 23 | 146 | 1.6 | 6.4 | 0.00 | 0.00 | 2.64 | 81 | 1009.1 |
| 20260508232822 | 23 | 152 | 1.6 | 4.8 | 0.00 | 0.00 | 2.62 | 81 | 1009.1 |
| 20260508231836 | 23 | 132 | 1.6 | 4.8 | 0.00 | 0.00 | 2.59 | 81 | 1009.1 |
| 20260508225821 | 23 | 154 | 3.2 | 8.0 | 0.00 | 0.00 | 2.54 | 80 | 1009.1 |
| 20260508224825 | 22 | 167 | 4.8 | 11.3 | 0.00 | 0.00 | 25.25 | 81 | 1009.1 |
| 20260508223825 | 23 | 174 | 3.2 | 6.4 | 0.00 | 0.00 | 25.02 | 79 | 1009.1 |
| 20260508222847 | 23 | 170 | 4.8 | 11.3 | 0.00 | 0.00 | 24.77 | 80 | 1009.1 |
| 20260508221816 | 22 | 157 | 4.8 | 9.7 | 0.00 | 0.00 | 24.51 | 81 | 1009.1 |
| 20260508220812 | 22 | 166 | 4.8 | 8.0 | 0.00 | 0.00 | 24.26 | 81 | 1009.1 |
| 20260508215846 | 22 | 146 | 4.8 | 8.0 | 0.00 | 0.00 | 23.98 | 81 | 1009.4 |
| 20260508214832 | 22 | 157 | 3.2 | 9.7 | 0.00 | 0.00 | 23.75 | 80 | 1009.1 |
| 20260508213808 | 22 | 153 | 3.2 | 8.0 | 0.00 | 0.00 | 23.50 | 79 | 1009.4 |